G7GQA-4 Weather Reports


time (UTC)temp
C
wind
direction
speed
KPH
gust
KPH
rain 1hr
cm
rain 24hr
cm
rain mn
cm
humidity
%
barometer
mb
20260510225527 6 120 0.0 3.2 0.00 0.00 0.00 73
20260510224527 6 126 0.0 3.2 0.00 0.00 0.00 72
20260510223527 6 293 3.2 4.8 0.00 0.00 0.00 72
20260510222527 7 115 1.6 4.8 0.00 0.00 0.00 69
20260510221527 7 108 3.2 8.0 0.00 0.00 0.00 69
20260510220527 7 149 3.2 6.4 0.00 0.00 0.00 69
20260510215527 7 133 3.2 8.0 0.00 0.00 0.00 69
20260510214527 7 115 3.2 6.4 0.00 0.00 0.00 68
20260510213527 7 116 3.2 8.0 0.00 0.00 0.00 67
20260510212527 7 138 4.8 8.0 0.00 0.00 0.00 67
20260510211527 8 138 4.8 9.7 0.00 0.00 0.00 66
20260510210527 8 124 3.2 9.7 0.00 0.00 0.00 65
20260510205527 8 135 3.2 6.4 0.00 0.00 0.00 64
20260510204527 8 121 3.2 6.4 0.00 0.00 0.00 63
20260510203527 8 129 3.2 6.4 0.00 0.00 0.00 62
20260510202527 8 128 1.6 4.8 0.00 0.00 0.00 62
20260510201527 8 132 1.6 4.8 0.00 0.00 0.00 62
20260510200527 8 127 1.6 6.4 0.00 0.00 0.00 61
20260510195527 9 153 1.6 3.2 0.00 0.00 0.00 62
20260510194527 9 78 0.0 3.2 0.00 0.00 0.00 60
20260510193527 10 78 1.6 4.8 0.00 0.00 0.00 59
20260510192527 10 126 1.6 6.4 0.00 0.00 0.00 60
20260510191527 10 120 3.2 4.8 0.00 0.00 0.00 58
20260510190527 10 156 1.6 3.2 0.00 0.00 0.00 57
20260510185527 11 120 1.6 4.8 0.00 0.00 0.00 55
20260510184527 11 133 3.2 6.4 0.00 0.00 0.00 54
20260510183527 11 111 3.2 6.4 0.00 0.00 0.00 53
20260510182527 12 104 1.6 3.2 0.00 0.00 0.00 52
20260510181527 12 185 3.2 6.4 0.00 0.00 0.00 51
20260510180527 12 155 4.8 9.7 0.00 0.00 0.00 49
20260510175527 12 153 4.8 11.3 0.00 0.00 0.00 48
20260510174527 12 142 4.8 17.7 0.00 0.00 0.00 48
20260510173527 12 118 3.2 9.7 0.00 0.00 0.00 48
20260510172527 12 286 3.2 6.4 0.00 0.00 0.00 47
20260510171527 13 116 3.2 8.0 0.00 0.00 0.00 48
20260510170527 13 318 4.8 9.7 0.00 0.00 0.00 48
20260510165527 13 336 6.4 12.9 0.00 0.00 0.00 47
20260510164527 13 56 3.2 6.4 0.00 0.00 0.00 50
20260510162527 13 79 3.2 9.7 0.00 0.00 0.00 47
20260510161527 13 319 3.2 6.4 0.00 0.00 0.00 48
20260510160527 13 340 6.4 9.7 0.00 0.00 0.00 49
20260510155527 13 350 3.2 6.4 0.00 0.00 0.00 51
20260510154527 14 354 4.8 9.7 0.00 0.00 0.00 48
20260510153526 14 131 4.8 9.7 0.00 0.00 0.00 48
20260510152526 13 39 6.4 14.5 0.00 0.00 0.00 51
20260510151527 13 345 3.2 8.0 0.00 0.00 0.00 52
20260510150526 13 142 4.8 11.3 0.00 0.00 0.00 53
20260510145527 13 132 4.8 11.3 0.00 0.00 0.00 54
20260510144527 13 53 4.8 8.0 0.00 0.00 0.00 54
20260510143526 13 284 4.8 8.0 0.00 0.00 0.00 54
20260510142527 13 79 4.8 19.3 0.00 0.00 0.00 52
20260510141527 12 82 4.8 9.7 0.00 0.00 0.00 58
20260510140527 13 51 4.8 8.0 0.00 0.00 0.00 57
20260510135527 13 22 3.2 9.7 0.00 0.00 0.00 57
20260510134526 12 116 4.8 14.5 0.00 0.00 0.00 57
20260510133527 12 104 4.8 9.7 0.00 0.00 0.00 58
20260510132527 12 103 6.4 12.9 0.00 0.00 0.00 60
20260510131526 12 104 3.2 8.0 0.00 0.00 0.00 60
20260510130526 13 126 6.4 16.1 0.00 0.00 0.00 60
20260510125525 12 24 4.8 8.0 0.00 0.00 0.00 63
20260510124525 11 94 4.8 6.4 0.00 0.00 0.00 64
20260510123525 12 17 3.2 6.4 0.00 0.00 0.00 65
20260510122525 11 138 4.8 9.7 0.00 0.00 0.00 67
20260510121524 11 11 4.8 11.3 0.00 0.00 0.00 68
20260510120524 11 321 4.8 11.3 0.00 0.00 0.00 68
20260510115524 11 106 3.2 6.4 0.00 0.00 0.00 69
20260510114524 11 14 3.2 9.7 0.00 0.00 0.00 69
20260510113524 11 24 4.8 11.3 0.00 0.00 0.00 69
20260510112524 11 34 4.8 11.3 0.00 0.00 0.00 69
20260510111524 11 120 4.8 16.1 0.00 0.00 0.00 69
20260510110524 11 18 4.8 9.7 0.00 0.00 0.00 69
20260510105524 11 313 4.8 11.3 0.00 0.00 0.00 70
20260510104524 11 241 4.8 9.7 0.00 0.00 0.00 71
20260510103524 11 118 4.8 9.7 0.00 0.00 0.00 73
20260510102524 11 337 3.2 6.4 0.00 0.00 0.00 73
20260510101523 10 4 4.8 8.0 0.00 0.00 0.00 76
20260510100523 10 319 4.8 9.7 0.00 0.00 0.00 77
20260510095523 10 93 6.4 14.5 0.00 0.00 0.00 77
20260510094523 10 322 4.8 11.3 0.00 0.00 0.00 79
20260510093523 9 326 4.8 9.7 0.00 0.00 0.00 80
20260510092523 9 352 3.2 8.0 0.00 0.00 0.00 80
20260510091523 9 329 3.2 6.4 0.00 0.00 0.00 80
20260510090523 9 53 4.8 9.7 0.00 0.00 0.00 80
20260510085523 9 63 3.2 6.4 0.00 0.00 0.00 81
20260510084523 8 87 3.2 6.4 0.00 0.00 0.00 81
20260510083523 8 336 3.2 9.7 0.00 0.00 0.00 82
20260510082523 8 333 1.6 8.0 0.00 0.00 0.00 83
20260510081523 8 352 3.2 6.4 0.00 0.00 0.00 83
20260510080523 8 326 1.6 4.8 0.00 0.00 0.00 83
20260510075523 9 256 0.0 3.2 0.00 0.00 0.00 83
20260510074523 9 335 3.2 9.7 0.00 0.00 0.00 83
20260510073523 9 320 3.2 4.8 0.00 0.00 0.00 83
20260510072523 9 327 3.2 8.0 0.00 0.00 0.00 82
20260510071522 9 26 1.6 4.8 0.00 0.00 0.00 82
20260510070523 9 46 1.6 8.0 0.00 0.00 0.00 83
20260510065522 9 25 3.2 6.4 0.00 0.00 0.00 82
20260510064523 9 345 4.8 6.4 0.00 0.00 0.00 83
20260510063523 9 7 3.2 9.7 0.00 0.00 0.00 84
20260510062523 9 130 1.6 8.0 0.00 0.00 0.00 84
20260510061523 9 347 3.2 8.0 0.00 0.00 0.00 84
20260510060523 9 108 3.2 8.0 0.00 0.00 0.00 83
20260510055522 9 90 4.8 9.7 0.00 0.00 0.00 84
20260510054522 10 94 3.2 9.7 0.00 0.00 0.00 83
20260510053522 9 304 1.6 6.4 0.00 0.00 0.00 83
20260510052522 9 71 1.6 4.8 0.00 0.00 0.00 83
20260510051522 9 343 1.6 6.4 0.00 0.00 0.00 83
20260510050522 9 306 1.6 3.2 0.00 0.00 0.00 83
20260510045522 9 318 1.6 3.2 0.00 0.00 0.00 82
20260510044522 9 124 1.6 6.4 0.00 0.00 0.00 81
20260510043522 9 311 3.2 9.7 0.00 0.00 0.00 83
20260510042522 9 345 3.2 9.7 0.00 0.00 0.00 82
20260510041522 9 325 3.2 6.4 0.00 0.00 0.00 83
20260510040522 8 20 1.6 4.8 0.00 0.00 0.00 84
20260510035522 8 4 3.2 8.0 0.00 0.00 0.00 83
20260510034522 8 136 1.6 6.4 0.00 0.00 0.00 84
20260510033522 8 322 1.6 4.8 0.00 0.00 0.00 84
20260510032522 8 317 1.6 6.4 0.00 0.00 0.00 84
20260510031522 8 317 1.6 6.4 0.00 0.00 0.00 83
20260510030522 8 83 1.6 6.4 0.00 0.00 0.00 84
20260510025522 9 330 0.0 3.2 0.00 0.00 0.00 84
20260510024522 9 310 3.2 8.0 0.00 0.00 0.00 83
20260510023522 9 294 1.6 3.2 0.00 0.00 0.00 83
20260510022522 9 269 3.2 9.7 0.00 0.00 0.00 83
20260510021522 9 292 1.6 6.4 0.00 0.00 0.00 83
20260510020522 9 294 0.0 3.2 0.00 0.00 0.00 83
20260510015522 8 173 1.6 6.4 0.00 0.00 0.00 83
20260510014522 8 258 1.6 4.8 0.00 0.00 0.00 84
20260510013522 8 180 1.6 3.2 0.00 0.00 0.00 84
20260510012522 8 312 0.0 4.8 0.00 0.00 0.00 84
20260510011522 8 54 1.6 3.2 0.00 0.00 0.00 84
20260510010522 8 54 0.0 3.2 0.00 0.00 0.00 85
20260510005522 8 208 3.2 8.0 0.00 0.00 0.00 86
20260510004522 8 300 0.0 3.2 0.00 0.00 0.00 86
20260510003522 9 201 1.6 4.8 0.00 0.00 0.00 86
20260510002522 9 318 0.0 3.2 0.00 0.00 0.00 86
20260510001527 9 300 3.2 4.8 0.00 0.00 0.00 86
20260510000522 9 308 3.2 6.4 0.00 0.00 0.00 86
20260509235522 10 295 1.6 3.2 0.00 0.00 0.00 85
20260509234521 10 306 1.6 3.2 0.00 0.00 0.00 85
20260509233522 10 305 1.6 6.4 0.00 0.00 0.00 85
20260509232522 10 36 3.2 6.4 0.00 0.00 0.00 84
20260509231522 10 348 0.0 3.2 0.00 0.00 0.00 83
20260509230522 10 306 0.0 3.2 0.00 0.00 0.00 82